NIMBUS 2 DEB, 25613

Orbit data source: Space-Track

NIMBUS 2 DEB, 25613 is space debris in SSO originally from a launch on Sun, 15 May 1966 UTC launched from the Air Force Western Test Range (AFWTR). Debris objects in space refer to the collection of defunct objects orbiting the Earth. Examples of debris include non-operational satellites, rocket bodies, and fragments generated from explosions, collisions, or faulty payload assembly.

Loading next visibility...
Identifier
25613, 1966-040F
Orbit
SSO
Country
Flag of USUS
Related business
Manufacturer
Unknown
Mission
Spacecraft
Bus & Motor
Unknown
Mass
Unknown
Launch date (UTC)
1966-05-15 (60 years ago)
Launch vehicle
Unknown
Launch site
Air Force Western Test Range (AFWTR)
Object type
Payload
Rocket body
Debris
Shape & HBR
Unknown shape, 0.1 m
Radar Cross Section
Small (<0.1 m²)

Expand to show TLE details & history
Last TLE update: 1 day ago

TLE from 1 day ago
0 NIMBUS 2 DEB
1 25613U 66040F   26127.41217800  .00002106  00000-0  26351-2 0  9992
2 25613 100.4544 278.7698 0031580 162.7910 220.6554 13.65472412934046
Epoch: 2026-05-07T09:53Z
TLE epoch observation values (Epoch: 2026-05-07T09:53:32.179Z)
Latitude
22.82298°
Longitude
-99.30348°
Altitude
1,036.266 km
Speed
7.327 km/s
True Right ascension
18h 17m 21s
True Declination
22° 42' 18"
Sunlit
Object was in daylight at epoch
Visualization orbit readout
Latitude
Unknown
Longitude
Unknown
Altitude
Unknown
Speed
Unknown
Apparent Right ascension
Unknown
Apparent Declination
Unknown
Sunlit
N/A
Visualization observer readout
Local Sidereal Time
22:35:02
Azimuth
Unknown
Elevation
Unknown
Doppler factor
Unknown
Orbital elements
Apogee altitude
1,036.534 km
Perigee altitude
989.85 km
Semi-major axis
7,391.329 km
Eccentricity
0.00316
Inclination
100.4544°
RAAN
278.7698°
Arg. of periapsis
162.791°
True anomaly
220.42034°
Mean anomaly
220.6554°
Eccentric anomaly
220.5378°
Mean motion
3.41554 °/min
Orbital period
105.4 mins
BSTAR
0.0026351
Loading maneuver chart data...
Computing Atmospheric mass density...
Loading historical data...
Loading historical data...
Loading historical data...
Loading historical data...
Loading historical data...
Loading historical data...
Loading historical data...

Documentation

Showing up to 5 results
|